Time,TemperatureF,DewpointF,PressureIn,WindDirection,WindDirectionDegrees,WindSpeedMPH,WindSpeedGustMPH,Humidity,HourlyPrecipIn,Conditions,Clouds,dailyrainin,SoftwareType,DateUTC
2013-02-15 00:02:00,45.0,35.0,30.03,WNW,292,0.0,-999.0,69,-99.99,,,-99.99,,2013-02-15 06:02:00,
2013-02-15 00:11:00,45.0,35.0,30.03,NW,304,0.0,-999.0,67,-99.99,,,-99.99,,2013-02-15 06:11:00,
2013-02-15 00:21:00,45.0,35.0,30.03,NW,304,0.0,-999.0,67,-99.99,,,-99.99,,2013-02-15 06:21:00,
2013-02-15 00:31:00,45.0,34.0,30.04,NNW,332,1.0,-999.0,65,-99.99,,,-99.99,,2013-02-15 06:31:00,
2013-02-15 00:42:00,45.0,34.0,30.04,NNW,332,1.0,-999.0,65,-99.99,,,-99.99,,2013-02-15 06:42:00,
2013-02-15 00:52:00,44.0,33.0,30.04,NW,315,0.0,-999.0,65,-99.99,,,-99.99,,2013-02-15 06:52:00,
2013-02-15 01:01:00,44.0,33.0,30.04,NW,314,1.0,-999.0,64,-99.99,,,-99.99,,2013-02-15 07:01:00,
2013-02-15 01:11:00,44.0,33.0,30.04,NW,314,1.0,-999.0,64,-99.99,,,-99.99,,2013-02-15 07:11:00,
2013-02-15 01:21:00,44.0,33.0,30.05,NNW,327,1.0,-999.0,64,-99.99,,,-99.99,,2013-02-15 07:21:00,
2013-02-15 01:31:00,44.0,33.0,30.05,NNW,341,1.0,-999.0,64,-99.99,,,-99.99,,2013-02-15 07:31:00,
2013-02-15 01:41:00,44.0,33.0,30.05,NNW,341,1.0,-999.0,64,-99.99,,,-99.99,,2013-02-15 07:41:00,
2013-02-15 01:52:00,44.0,32.0,30.06,North,5,2.0,-999.0,63,-99.99,,,-99.99,,2013-02-15 07:52:00,
2013-02-15 02:01:00,44.0,33.0,30.06,NNW,331,2.0,-999.0,64,-99.99,,,-99.99,,2013-02-15 08:01:00,
2013-02-15 02:11:00,44.0,33.0,30.06,NNW,331,2.0,-999.0,64,-99.99,,,-99.99,,2013-02-15 08:11:00,
2013-02-15 02:21:00,43.0,32.0,30.06,NNW,336,1.0,-999.0,65,-99.99,,,-99.99,,2013-02-15 08:21:00,
2013-02-15 02:31:00,43.0,33.0,30.06,NNW,338,1.0,-999.0,67,-99.99,,,-99.99,,2013-02-15 08:31:00,
2013-02-15 02:41:00,43.0,33.0,30.06,NNW,338,1.0,-999.0,67,-99.99,,,-99.99,,2013-02-15 08:41:00,
2013-02-15 02:53:00,43.0,33.0,30.07,NNW,343,1.0,-999.0,67,-99.99,,,-99.99,,2013-02-15 08:53:00,
2013-02-15 03:01:00,42.0,32.0,30.07,NNW,343,0.0,-999.0,68,-99.99,,,-99.99,,2013-02-15 09:01:00,
2013-02-15 03:12:00,42.0,32.0,30.07,NNW,343,0.0,-999.0,68,-99.99,,,-99.99,,2013-02-15 09:12:00,
2013-02-15 03:21:00,42.0,32.0,30.07,NNW,344,0.0,-999.0,68,-99.99,,,-99.99,,2013-02-15 09:21:00,
2013-02-15 03:32:00,41.0,32.0,30.07,NNW,342,0.0,-999.0,69,-99.99,,,-99.99,,2013-02-15 09:32:00,
2013-02-15 03:41:00,41.0,32.0,30.07,NNW,342,0.0,-999.0,69,-99.99,,,-99.99,,2013-02-15 09:41:00,
2013-02-15 03:52:00,41.0,32.0,30.08,NNW,345,0.0,-999.0,70,-99.99,,,-99.99,,2013-02-15 09:52:00,
2013-02-15 04:01:00,42.0,33.0,30.08,NNW,345,0.0,-999.0,70,-99.99,,,-99.99,,2013-02-15 10:01:00,
2013-02-15 04:11:00,42.0,33.0,30.08,NNW,345,0.0,-999.0,70,-99.99,,,-99.99,,2013-02-15 10:11:00,
2013-02-15 04:21:00,42.0,33.0,30.09,NNW,344,0.0,-999.0,70,-99.99,,,-99.99,,2013-02-15 10:21:00,
2013-02-15 04:31:00,42.0,33.0,30.09,NNW,344,0.0,-999.0,70,-99.99,,,-99.99,,2013-02-15 10:31:00,
2013-02-15 04:41:00,42.0,33.0,30.09,NNW,344,0.0,-999.0,70,-99.99,,,-99.99,,2013-02-15 10:41:00,
2013-02-15 04:52:00,41.0,32.0,30.10,NW,325,0.0,-999.0,71,-99.99,,,-99.99,,2013-02-15 10:52:00,
2013-02-15 05:01:00,42.0,33.0,30.10,NW,309,0.0,-999.0,70,-99.99,,,-99.99,,2013-02-15 11:01:00,
2013-02-15 05:11:00,42.0,33.0,30.10,NW,309,0.0,-999.0,70,-99.99,,,-99.99,,2013-02-15 11:11:00,
2013-02-15 05:22:00,42.0,33.0,30.11,WNW,299,0.0,-999.0,69,-99.99,,,-99.99,,2013-02-15 11:22:00,
2013-02-15 05:31:00,42.0,33.0,30.11,WNW,298,0.0,-999.0,69,-99.99,,,-99.99,,2013-02-15 11:31:00,
2013-02-15 05:42:00,42.0,33.0,30.11,WNW,298,0.0,-999.0,69,-99.99,,,-99.99,,2013-02-15 11:42:00,
2013-02-15 05:52:00,43.0,33.0,30.11,WNW,294,1.0,-999.0,67,-99.99,,,-99.99,,2013-02-15 11:52:00,
2013-02-15 06:01:00,43.0,33.0,30.11,West,281,2.0,-999.0,67,-99.99,,,-99.99,,2013-02-15 12:01:00,
2013-02-15 06:11:00,43.0,33.0,30.11,West,281,2.0,-999.0,67,-99.99,,,-99.99,,2013-02-15 12:11:00,
2013-02-15 06:21:00,43.0,34.0,30.13,WNW,299,0.0,-999.0,69,-99.99,,,-99.99,,2013-02-15 12:21:00,
2013-02-15 06:32:00,43.0,34.0,30.13,NNW,334,1.0,-999.0,69,-99.99,,,-99.99,,2013-02-15 12:32:00,
2013-02-15 06:42:00,43.0,34.0,30.13,NNW,334,1.0,-999.0,69,-99.99,,,-99.99,,2013-02-15 12:42:00,
2013-02-15 06:52:00,42.0,33.0,30.13,NW,323,1.0,-999.0,70,-99.99,,,-99.99,,2013-02-15 12:52:00,
2013-02-15 07:02:00,42.0,33.0,30.13,WNW,302,1.0,-999.0,70,-99.99,,,-99.99,,2013-02-15 13:02:00,
2013-02-15 07:11:00,42.0,33.0,30.13,WNW,302,1.0,-999.0,70,-99.99,,,-99.99,,2013-02-15 13:11:00,
2013-02-15 07:21:00,42.0,33.0,30.14,NW,323,0.0,-999.0,71,-99.99,,,-99.99,,2013-02-15 13:21:00,
2013-02-15 07:32:00,42.0,33.0,30.14,NNW,346,0.0,-999.0,71,-99.99,,,-99.99,,2013-02-15 13:32:00,
2013-02-15 07:41:00,42.0,33.0,30.14,NNW,346,0.0,-999.0,71,-99.99,,,-99.99,,2013-02-15 13:41:00,
2013-02-15 07:52:00,42.0,33.0,30.14,North,349,0.0,-999.0,70,-99.99,,,-99.99,,2013-02-15 13:52:00,
2013-02-15 08:01:00,42.0,33.0,30.15,West,279,1.0,-999.0,71,-99.99,,,-99.99,,2013-02-15 14:01:00,
2013-02-15 08:11:00,42.0,33.0,30.15,West,279,1.0,-999.0,71,-99.99,,,-99.99,,2013-02-15 14:11:00,
2013-02-15 08:21:00,43.0,34.0,30.15,NW,309,0.0,-999.0,71,-99.99,,,-99.99,,2013-02-15 14:21:00,
2013-02-15 08:32:00,44.0,35.0,30.16,NNW,342,0.0,-999.0,70,-99.99,,,-99.99,,2013-02-15 14:32:00,
2013-02-15 08:41:00,44.0,35.0,30.16,NNW,342,0.0,-999.0,70,-99.99,,,-99.99,,2013-02-15 14:41:00,
2013-02-15 08:52:00,45.0,35.0,30.16,NNW,346,1.0,-999.0,68,-99.99,,,-99.99,,2013-02-15 14:52:00,
2013-02-15 09:01:00,45.0,35.0,30.16,North,355,2.0,-999.0,67,-99.99,,,-99.99,,2013-02-15 15:01:00,
2013-02-15 09:11:00,45.0,35.0,30.16,North,355,2.0,-999.0,67,-99.99,,,-99.99,,2013-02-15 15:11:00,
2013-02-15 09:21:00,46.0,35.0,30.17,NW,309,3.0,-999.0,65,-99.99,,,-99.99,,2013-02-15 15:21:00,
2013-02-15 09:32:00,47.0,34.0,30.17,WNW,300,3.0,-999.0,61,-99.99,,,-99.99,,2013-02-15 15:32:00,
2013-02-15 09:42:00,48.0,34.0,30.18,NW,314,4.0,-999.0,59,-99.99,,,-99.99,,2013-02-15 15:42:00,
2013-02-15 09:52:00,48.0,34.0,30.18,NW,314,4.0,-999.0,59,-99.99,,,-99.99,,2013-02-15 15:52:00,
2013-02-15 10:01:00,48.0,33.0,30.18,North,360,5.0,-999.0,56,-99.99,,,-99.99,,2013-02-15 16:01:00,
2013-02-15 10:11:00,48.0,33.0,30.18,North,360,5.0,-999.0,56,-99.99,,,-99.99,,2013-02-15 16:11:00,
2013-02-15 10:22:00,48.0,33.0,30.18,NW,317,3.0,-999.0,55,-99.99,,,-99.99,,2013-02-15 16:22:00,
2013-02-15 10:32:00,48.0,33.0,30.17,NW,304,3.0,-999.0,55,-99.99,,,-99.99,,2013-02-15 16:32:00,
2013-02-15 10:42:00,48.0,33.0,30.17,NW,304,3.0,-999.0,55,-99.99,,,-99.99,,2013-02-15 16:42:00,
2013-02-15 10:52:00,48.0,33.0,30.18,North,360,3.0,-999.0,55,-99.99,,,-99.99,,2013-02-15 16:52:00,
2013-02-15 11:01:00,49.0,34.0,30.18,NNW,346,3.0,-999.0,55,-99.99,,,-99.99,,2013-02-15 17:01:00,
2013-02-15 11:11:00,48.0,33.0,30.18,NNW,346,9.0,-999.0,56,-99.99,,,-99.99,,2013-02-15 17:11:00,
2013-02-15 11:21:00,48.0,33.0,30.18,NNW,346,9.0,-999.0,56,-99.99,,,-99.99,,2013-02-15 17:21:00,
2013-02-15 11:32:00,49.0,33.0,30.19,NW,319,7.0,-999.0,53,-99.99,,,-99.99,,2013-02-15 17:32:00,
2013-02-15 11:41:00,49.0,33.0,30.19,NW,319,7.0,-999.0,53,-99.99,,,-99.99,,2013-02-15 17:41:00,
2013-02-15 11:52:00,48.0,32.0,30.18,North,355,8.0,-999.0,54,-99.99,,,-99.99,,2013-02-15 17:52:00,
2013-02-15 12:01:00,48.0,31.0,30.18,NNW,342,8.0,-999.0,52,-99.99,,,-99.99,,2013-02-15 18:01:00,
2013-02-15 12:11:00,48.0,31.0,30.18,NNW,342,8.0,-999.0,52,-99.99,,,-99.99,,2013-02-15 18:11:00,
2013-02-15 12:21:00,48.0,31.0,30.17,NW,310,8.0,-999.0,52,-99.99,,,-99.99,,2013-02-15 18:21:00,
2013-02-15 12:31:00,48.0,29.0,30.18,North,355,7.0,-999.0,48,-99.99,,,-99.99,,2013-02-15 18:31:00,
2013-02-15 12:42:00,48.0,29.0,30.18,North,355,7.0,-999.0,48,-99.99,,,-99.99,,2013-02-15 18:42:00,
2013-02-15 12:52:00,48.0,28.0,30.17,NW,318,8.0,-999.0,46,-99.99,,,-99.99,,2013-02-15 18:52:00,
2013-02-15 13:01:00,48.0,28.0,30.16,North,355,6.0,-999.0,46,-99.99,,,-99.99,,2013-02-15 19:01:00,
2013-02-15 13:11:00,48.0,28.0,30.16,North,355,6.0,-999.0,46,-99.99,,,-99.99,,2013-02-15 19:11:00,
2013-02-15 13:22:00,48.0,28.0,30.16,North,360,9.0,-999.0,46,-99.99,,,-99.99,,2013-02-15 19:22:00,
2013-02-15 13:32:00,49.0,29.0,30.16,NNE,18,7.0,-999.0,45,-99.99,,,-99.99,,2013-02-15 19:32:00,
2013-02-15 13:41:00,49.0,29.0,30.16,NNE,18,7.0,-999.0,45,-99.99,,,-99.99,,2013-02-15 19:41:00,
2013-02-15 13:52:00,48.0,31.0,30.15,NNE,21,7.0,-999.0,51,-99.99,,,-99.99,,2013-02-15 19:52:00,
2013-02-15 14:01:00,47.0,31.0,30.16,North,11,9.0,-999.0,54,-99.99,,,-99.99,,2013-02-15 20:01:00,
2013-02-15 14:11:00,47.0,31.0,30.16,North,11,9.0,-999.0,54,-99.99,,,-99.99,,2013-02-15 20:11:00,
2013-02-15 14:21:00,46.0,31.0,30.16,NNE,14,9.0,-999.0,56,-99.99,,,-99.99,,2013-02-15 20:21:00,
2013-02-15 14:32:00,46.0,31.0,30.16,NNE,21,7.0,-999.0,55,-99.99,,,-99.99,,2013-02-15 20:32:00,
2013-02-15 14:42:00,46.0,31.0,30.16,NNE,21,7.0,-999.0,55,-99.99,,,-99.99,,2013-02-15 20:42:00,
2013-02-15 14:52:00,47.0,29.0,30.16,NNW,340,8.0,-999.0,50,-99.99,,,-99.99,,2013-02-15 20:52:00,
2013-02-15 15:01:00,46.0,28.0,30.16,North,5,9.0,-999.0,50,-99.99,,,-99.99,,2013-02-15 21:01:00,
2013-02-15 15:11:00,46.0,28.0,30.16,North,5,9.0,-999.0,50,-99.99,,,-99.99,,2013-02-15 21:11:00,
2013-02-15 15:21:00,46.0,28.0,30.16,North,349,9.0,-999.0,49,-99.99,,,-99.99,,2013-02-15 21:21:00,
2013-02-15 15:31:00,47.0,27.0,30.16,North,11,7.0,-999.0,46,-99.99,,,-99.99,,2013-02-15 21:31:00,
2013-02-15 15:42:00,47.0,27.0,30.16,North,11,7.0,-999.0,46,-99.99,,,-99.99,,2013-02-15 21:42:00,
2013-02-15 15:52:00,46.0,26.0,30.17,NW,319,7.0,-999.0,46,-99.99,,,-99.99,,2013-02-15 21:52:00,
2013-02-15 16:02:00,46.0,25.0,30.16,NNW,336,8.0,-999.0,44,-99.99,,,-99.99,,2013-02-15 22:02:00,
2013-02-15 16:11:00,46.0,25.0,30.16,NNW,336,8.0,-999.0,44,-99.99,,,-99.99,,2013-02-15 22:11:00,
2013-02-15 16:21:00,47.0,27.0,30.16,North,355,6.0,-999.0,46,-99.99,,,-99.99,,2013-02-15 22:21:00,
2013-02-15 16:31:00,46.0,26.0,30.16,North,5,6.0,-999.0,46,-99.99,,,-99.99,,2013-02-15 22:31:00,
2013-02-15 16:41:00,46.0,26.0,30.16,North,5,6.0,-999.0,46,-99.99,,,-99.99,,2013-02-15 22:41:00,
2013-02-15 16:52:00,46.0,26.0,30.16,North,360,6.0,-999.0,46,-99.99,,,-99.99,,2013-02-15 22:52:00,
2013-02-15 17:02:00,45.0,26.0,30.16,NNE,30,6.0,-999.0,47,-99.99,,,-99.99,,2013-02-15 23:02:00,
2013-02-15 17:11:00,45.0,26.0,30.16,NNE,30,6.0,-999.0,47,-99.99,,,-99.99,,2013-02-15 23:11:00,
2013-02-15 17:21:00,45.0,27.0,30.17,NNE,30,3.0,-999.0,50,-99.99,,,-99.99,,2013-02-15 23:21:00,
2013-02-15 17:31:00,44.0,26.0,30.17,NE,52,4.0,-999.0,49,-99.99,,,-99.99,,2013-02-15 23:31:00,
2013-02-15 17:42:00,44.0,26.0,30.17,NE,52,4.0,-999.0,49,-99.99,,,-99.99,,2013-02-15 23:42:00,
2013-02-15 17:52:00,44.0,26.0,30.17,NNE,19,5.0,-999.0,48,-99.99,,,-99.99,,2013-02-15 23:52:00,
2013-02-15 18:02:00,43.0,25.0,30.18,NNE,20,5.0,-999.0,49,-99.99,,,-99.99,,2013-02-16 00:02:00,
2013-02-15 18:11:00,43.0,25.0,30.18,NNE,20,5.0,-999.0,49,-99.99,,,-99.99,,2013-02-16 00:11:00,
2013-02-15 18:21:00,43.0,27.0,30.18,NE,34,4.0,-999.0,52,-99.99,,,-99.99,,2013-02-16 00:21:00,
2013-02-15 18:32:00,42.0,26.0,30.18,NNE,26,4.0,-999.0,53,-99.99,,,-99.99,,2013-02-16 00:32:00,
2013-02-15 18:41:00,42.0,26.0,30.18,NNE,26,4.0,-999.0,53,-99.99,,,-99.99,,2013-02-16 00:41:00,
2013-02-15 18:52:00,41.0,27.0,30.19,NNE,26,4.0,-999.0,58,-99.99,,,-99.99,,2013-02-16 00:52:00,
2013-02-15 19:02:00,40.0,26.0,30.19,NNE,30,4.0,-999.0,57,-99.99,,,-99.99,,2013-02-16 01:02:00,
2013-02-15 19:11:00,40.0,26.0,30.19,NNE,30,4.0,-999.0,57,-99.99,,,-99.99,,2013-02-16 01:11:00,
2013-02-15 19:21:00,39.0,25.0,30.19,NNE,28,2.0,-999.0,58,-99.99,,,-99.99,,2013-02-16 01:21:00,
2013-02-15 19:31:00,39.0,25.0,30.19,NNE,32,1.0,-999.0,58,-99.99,,,-99.99,,2013-02-16 01:31:00,
2013-02-15 19:41:00,39.0,25.0,30.19,NNE,32,1.0,-999.0,58,-99.99,,,-99.99,,2013-02-16 01:41:00,
2013-02-15 19:52:00,38.0,23.0,30.20,NNE,33,0.0,-999.0,55,-99.99,,,-99.99,,2013-02-16 01:52:00,
2013-02-15 20:01:00,38.0,23.0,30.19,NNE,27,0.0,-999.0,55,-99.99,,,-99.99,,2013-02-16 02:01:00,
2013-02-15 20:11:00,38.0,23.0,30.19,NNE,27,0.0,-999.0,55,-99.99,,,-99.99,,2013-02-16 02:11:00,
2013-02-15 20:21:00,37.0,23.0,30.19,NNE,33,0.0,-999.0,56,-99.99,,,-99.99,,2013-02-16 02:21:00,
2013-02-15 20:31:00,37.0,23.0,30.20,NNE,23,0.0,-999.0,57,-99.99,,,-99.99,,2013-02-16 02:31:00,
2013-02-15 20:42:00,37.0,23.0,30.20,NNE,23,0.0,-999.0,57,-99.99,,,-99.99,,2013-02-16 02:42:00,
2013-02-15 20:52:00,36.0,23.0,30.20,NNE,15,0.0,-999.0,60,-99.99,,,-99.99,,2013-02-16 02:52:00,
2013-02-15 21:01:00,35.0,23.0,30.21,NNE,27,0.0,-999.0,61,-99.99,,,-99.99,,2013-02-16 03:01:00,
2013-02-15 21:11:00,35.0,23.0,30.21,NNE,27,0.0,-999.0,61,-99.99,,,-99.99,,2013-02-16 03:11:00,
2013-02-15 21:21:00,34.0,22.0,30.21,North,9,0.0,-999.0,61,-99.99,,,-99.99,,2013-02-16 03:21:00,
2013-02-15 21:32:00,34.0,23.0,30.21,North,11,0.0,-999.0,63,-99.99,,,-99.99,,2013-02-16 03:32:00,
2013-02-15 21:41:00,34.0,23.0,30.21,North,11,0.0,-999.0,63,-99.99,,,-99.99,,2013-02-16 03:41:00,
2013-02-15 21:52:00,34.0,23.0,30.22,North,355,0.0,-999.0,64,-99.99,,,-99.99,,2013-02-16 03:52:00,
2013-02-15 22:01:00,34.0,23.0,30.22,North,5,0.0,-999.0,64,-99.99,,,-99.99,,2013-02-16 04:01:00,
2013-02-15 22:11:00,33.0,23.0,30.21,North,11,0.0,-999.0,65,-99.99,,,-99.99,,2013-02-16 04:11:00,
2013-02-15 22:21:00,33.0,23.0,30.21,North,11,0.0,-999.0,65,-99.99,,,-99.99,,2013-02-16 04:21:00,
2013-02-15 22:32:00,33.0,22.0,30.22,NNE,17,0.0,-999.0,64,-99.99,,,-99.99,,2013-02-16 04:32:00,
2013-02-15 22:41:00,33.0,22.0,30.22,NNE,17,0.0,-999.0,64,-99.99,,,-99.99,,2013-02-16 04:41:00,
2013-02-15 22:52:00,33.0,22.0,30.21,North,355,0.0,-999.0,64,-99.99,,,-99.99,,2013-02-16 04:52:00,
2013-02-15 23:01:00,33.0,23.0,30.21,North,11,0.0,-999.0,65,-99.99,,,-99.99,,2013-02-16 05:01:00,
2013-02-15 23:12:00,33.0,23.0,30.21,North,11,0.0,-999.0,65,-99.99,,,-99.99,,2013-02-16 05:12:00,
2013-02-15 23:22:00,32.0,22.0,30.20,North,5,0.0,-999.0,65,-99.99,,,-99.99,,2013-02-16 05:22:00,
2013-02-15 23:31:00,32.0,22.0,30.20,NW,325,0.0,-999.0,66,-99.99,,,-99.99,,2013-02-16 05:31:00,
2013-02-15 23:42:00,32.0,22.0,30.20,NW,325,0.0,-999.0,66,-99.99,,,-99.99,,2013-02-16 05:42:00,
2013-02-15 23:52:00,32.0,23.0,30.21,NNW,327,0.0,-999.0,68,-99.99,,,-99.99,,2013-02-16 05:52:00,